Theta_e
320 320 320 320 320 319 319 320 320 320 321 321 322 321 321 322 321 309 300 310 312 331 330 315 313 312 308 303 298 294 288 283 286 289 293 295 295 299 301 300 301 303 304 309 310
320 320 320 320 320 319 319 319 319 320 321 321 321 321 322 322 313 308 320 330 331 332 310 309 308 309 302 297 297 292 287 288 293 293 292 295 295 297 299 299 300 302 306 309 308
319 319 319 319 319 319 319 319 319 320 320 320 320 321 321 320 305 306 330 334 336 328 312 312 310 307 298 297 298 291 289 292 295 295 297 296 297 298 297 296 299 300 304 306 304
318 318 318 318 319 319 318 319 319 319 319 319 320 321 322 314 292 309 334 338 334 321 314 308 303 299 295 294 298 292 297 297 299 300 298 298 300 298 298 300 304 304 304 305 305
317 317 317 317 318 318 318 318 318 318 318 319 320 321 316 305 306 318 339 332 320 315 311 304 300 296 294 295 298 294 298 300 301 299 299 299 299 299 300 304 305 304 305 304 305
316 316 316 317 317 318 318 317 317 317 318 319 321 322 308 297 310 315 318 315 314 311 309 305 302 301 296 295 294 298 297 298 300 300 298 298 298 299 303 305 305 304 304 304 304
315 315 315 315 316 317 317 317 316 317 318 320 321 319 307 303 312 313 316 311 313 314 306 307 306 302 299 296 297 297 295 298 298 299 297 299 298 298 303 304 303 305 307 309 311
314 313 314 314 315 316 317 316 316 317 318 320 321 313 301 312 312 309 313 313 311 310 310 307 307 302 298 298 300 295 293 289 297 299 299 298 292 300 303 303 305 308 310 310 310
313 312 313 314 315 315 315 315 316 317 319 321 312 308 301 317 307 309 310 306 307 307 306 311 306 299 299 294 291 293 287 290 293 297 298 297 294 301 304 306 305 305 307 308 308
313 312 312 312 314 314 313 314 319 317 317 320 316 303 306 304 307 307 307 308 305 305 304 303 297 294 292 291 286 289 287 288 290 295 297 293 293 302 305 305 304 304 306 306 307
312 311 311 312 313 312 309 304 301 299 306 300 302 304 308 312 312 306 307 306 305 302 295 298 293 290 294 294 295 294 291 290 293 297 295 293 294 300 303 303 303 303 304 305 307
311 311 311 311 312 312 305 304 305 305 298 305 305 307 311 311 305 307 307 300 300 295 298 295 290 297 299 298 296 295 291 291 294 297 294 294 294 300 303 302 303 304 304 306 307
310 310 311 311 311 307 304 307 309 304 297 303 306 304 305 306 303 303 305 300 297 295 294 292 296 301 300 296 295 293 291 291 291 295 295 293 291 298 302 304 305 306 306 306 306
309 309 310 310 304 301 305 308 307 306 293 302 303 303 302 302 301 307 306 302 298 294 296 293 300 298 296 296 296 289 296 295 294 291 286 294 283 293 298 300 302 303 303 304 306
309 309 310 310 299 302 306 308 307 309 285 303 301 305 303 300 301 304 307 303 295 296 295 292 295 296 294 295 298 293 298 295 295 291 287 290 284 290 298 297 299 301 303 304 305
308 309 310 306 302 306 308 305 309 296 287 300 302 299 298 301 302 303 304 304 302 296 295 294 299 297 296 298 298 299 297 294 291 286 279 288 286 285 293 296 299 301 303 304 305
308 309 307 309 298 305 305 304 293 289 301 296 297 297 297 298 299 299 297 294 291 287 287 291 293 297 298 294 296 295 289 279 281 279 280 288 286 288 298 301 302 301 303 304 304
306 307 308 310 306 308 304 297 287 295 296 302 299 297 295 298 296 298 295 291 295 291 286 285 284 293 297 293 290 291 290 281 273 275 281 290 283 291 302 304 304 304 303 303 304
305 304 307 310 311 305 299 288 290 295 300 298 296 292 292 297 295 295 294 292 294 292 287 285 287 295 298 296 297 293 289 293 283 282 280 284 289 297 299 300 300 301 302 302 303
298 303 307 311 309 303 295 292 295 302 301 299 291 294 289 293 292 292 293 298 298 298 293 289 283 293 295 300 301 297 299 286 285 273 276 282 285 286 293 296 298 298 299 302 304
301 303 309 306 306 299 292 293 298 303 302 297 293 292 294 292 293 292 295 298 301 296 294 289 287 288 292 291 292 294 291 292 288 283 281 280 282 295 294 297 296 298 299 301 303
295 296 308 307 296 294 294 298 300 301 303 301 297 297 294 294 293 293 295 298 302 298 291 292 286 283 287 294 299 297 292 291 287 281 284 286 288 299 297 297 297 298 300 302 303
290 295 310 305 291 291 296 301 302 300 298 298 296 298 296 292 289 295 297 303 301 298 293 291 285 282 284 289 295 292 296 293 290 288 284 285 283 297 298 298 298 297 300 302 303
296 295 297 298 295 293 293 296 297 303 300 299 297 298 295 292 294 292 294 302 302 299 307 299 288 285 279 286 290 290 293 294 293 290 285 288 288 295 296 295 297 298 299 301 302
298 293 295 290 293 294 293 296 296 297 299 298 295 297 293 289 290 291 296 297 300 305 297 294 288 289 291 293 294 293 293 294 292 294 287 289 290 293 295 296 297 298 299 301 301
295 293 294 292 294 293 293 293 296 297 295 294 294 297 294 290 293 290 294 292 294 295 293 293 287 289 288 294 294 293 296 298 296 295 295 294 291 296 297 298 297 298 299 300 301
295 295 295 293 293 291 291 295 295 295 297 299 297 294 293 295 297 298 298 296 297 294 291 290 289 286 285 291 292 288 294 296 296 296 294 288 292 295 295 297 296 297 299 299 300
Wind_Speed
13 12 11 11 11 10 10 10 10 10 10 11 12 12 13 15 15 0 3 6 3 0 3 6 2 5 3 1 3 4 5 1 4 2 6 4 4 4 2 4 4 6 3 1 1
16 14 13 12 11 10 11 10 10 10 10 11 13 12 11 12 3 3 8 5 3 3 3 8 9 7 3 1 1 5 4 8 5 1 4 4 4 3 4 7 5 3 3 3 2
18 17 15 15 13 11 11 10 9 9 9 10 13 14 11 7 2 4 6 8 2 1 2 1 1 3 5 2 5 1 5 2 5 3 3 3 5 2 1 5 6 7 9 6 6
19 19 18 16 15 14 12 12 10 9 8 9 11 13 14 1 3 5 8 4 4 1 1 3 6 6 6 4 4 2 2 2 5 2 4 4 6 4 4 11 8 9 7 5 11
18 19 19 18 16 14 13 12 10 9 8 8 10 12 3 3 5 7 6 4 2 3 4 2 5 3 2 4 6 1 4 5 7 8 6 2 7 5 8 13 9 9 8 11 10
19 19 18 17 17 16 15 12 10 9 7 7 9 10 2 0 4 4 3 3 2 2 3 4 3 3 3 2 1 3 4 8 8 11 4 3 2 6 10 6 9 7 11 9 8
20 20 20 18 17 17 17 14 11 9 8 6 5 2 2 8 2 1 6 4 4 5 3 4 4 2 2 5 2 3 6 7 3 4 2 6 7 3 6 9 10 14 13 13 13
21 20 20 20 19 18 18 16 13 9 7 5 2 1 5 4 2 2 3 6 7 7 5 6 6 4 2 1 7 5 4 5 6 4 3 4 7 9 11 9 10 12 13 13 11
22 22 21 21 20 20 19 20 11 3 3 3 0 2 7 10 1 6 8 4 3 4 3 5 5 2 4 4 5 6 0 5 7 3 3 5 5 12 11 9 9 8 10 11 12
24 24 24 23 23 20 22 7 6 6 0 3 1 2 5 1 4 3 2 1 3 5 6 6 6 3 4 5 2 4 2 3 5 5 4 2 1 6 9 12 7 7 9 11 11
24 25 25 24 24 22 10 1 6 4 2 5 6 4 6 4 4 3 0 2 4 6 4 4 5 3 10 9 7 2 2 4 5 5 2 4 3 3 3 7 7 7 8 11 13
25 26 26 26 24 20 1 3 4 5 7 5 5 5 7 3 5 3 3 3 4 3 4 7 1 6 8 5 5 4 6 5 5 5 2 5 3 4 4 4 4 5 8 12 17
26 25 26 28 28 2 2 3 5 3 3 8 4 4 5 8 6 5 7 2 2 2 2 3 6 4 3 3 3 3 3 4 5 5 4 1 1 4 1 2 4 4 3 7 11
26 25 24 29 2 5 3 3 7 3 5 5 2 4 1 2 3 4 4 4 1 1 3 5 6 6 2 3 3 2 3 3 6 4 4 3 5 3 2 5 6 9 10 11 13
28 25 22 11 4 1 2 7 3 6 3 2 3 1 6 4 2 7 2 4 1 1 6 7 4 7 9 6 2 6 4 3 3 1 2 3 4 5 3 6 10 7 7 8 8
30 25 19 3 1 7 8 6 5 6 0 4 3 6 8 7 5 2 6 7 2 3 4 4 4 3 4 4 3 4 4 6 4 3 4 1 4 5 2 4 6 6 8 10 12
32 27 9 1 2 5 4 5 6 5 3 6 4 6 3 6 8 5 4 7 4 7 6 7 4 5 5 8 6 9 7 5 7 7 5 2 3 8 4 6 5 9 11 11 12
34 22 5 5 2 6 5 7 4 1 2 3 4 4 4 6 4 4 2 3 4 4 2 5 9 6 8 0 5 4 4 6 4 2 6 3 4 7 6 5 6 8 9 10 13
26 5 3 4 4 3 7 5 5 2 1 2 3 5 5 5 3 6 3 2 2 2 2 4 5 6 2 3 0 1 4 1 5 3 2 4 6 6 3 7 6 10 8 11 13
4 5 5 5 5 6 6 3 1 1 1 4 2 1 4 4 5 5 3 2 1 2 3 1 4 3 5 4 6 6 4 3 4 2 4 6 5 7 5 8 10 11 9 12 13
4 5 4 5 5 7 3 4 2 1 1 3 1 2 2 3 2 3 5 5 4 1 3 2 3 7 4 2 2 4 4 4 4 5 4 4 7 4 2 6 9 12 10 12 15
4 3 4 3 5 1 2 3 3 3 2 3 3 2 1 2 3 2 2 2 7 3 2 1 3 4 7 6 5 2 2 2 3 6 5 2 8 4 4 7 7 10 9 11 12
2 4 5 4 1 3 6 3 1 2 2 1 1 2 1 1 2 1 2 2 4 4 3 3 2 5 9 7 5 2 3 1 2 3 4 2 8 2 8 9 9 9 11 12 13
2 4 6 6 1 2 4 3 3 1 2 3 0 3 2 1 0 3 3 1 6 3 5 6 3 7 7 8 3 7 9 6 4 3 4 7 9 15 11 10 10 11 9 11 10
2 1 2 4 3 3 2 2 2 0 2 1 3 3 2 1 3 3 1 5 5 2 3 4 3 5 7 11 7 12 13 11 5 5 5 5 5 12 12 9 9 9 9 10 12
1 3 5 3 4 4 4 2 5 2 5 2 5 4 4 4 8 7 4 3 6 1 2 2 3 1 5 5 5 4 1 5 4 2 5 5 9 8 8 8 8 13 9 11 12
3 2 4 3 4 2 2 4 4 6 2 7 5 4 3 7 8 10 9 8 8 9 6 3 4 2 5 5 6 5 4 3 5 5 5 5 9 5 8 9 9 9 9 10 12
Wind_Direction
4 357 351 344 338 336 338 338 338 338 335 331 329 329 333 332 319 36 329 216 194 317 309 300 67 358 77 54 158 128 61 293 263 65 276 295 23 322 248 10 360 335 50 159 318
8 1 353 347 340 334 333 333 334 335 334 333 326 324 332 333 350 321 247 227 229 263 8 16 352 7 43 330 38 95 118 218 220 236 283 309 324 306 35 345 321 321 249 242 234
9 5 358 350 344 337 329 330 330 328 327 327 321 321 327 323 42 270 272 236 162 34 97 114 349 55 50 333 0 91 193 232 283 262 311 283 293 321 20 297 240 255 282 299 177
4 1 358 353 346 339 332 328 328 328 323 317 313 315 323 197 77 251 245 242 89 287 332 9 38 35 38 14 309 281 2 111 284 341 292 297 303 310 231 237 236 244 250 274 286
356 354 351 347 343 335 327 322 320 319 318 313 311 318 330 8 254 262 247 63 7 298 345 28 49 109 29 296 337 67 310 296 267 266 249 259 237 233 265 264 257 268 259 249 253
351 349 346 343 336 330 324 318 313 310 308 308 310 316 4 254 268 267 186 8 240 331 294 196 191 210 126 281 134 278 274 290 298 294 290 245 295 162 265 351 292 274 262 280 307
348 344 343 340 335 326 319 315 306 297 292 289 302 348 84 230 1 75 142 226 204 201 237 231 166 106 119 333 234 286 344 351 302 283 310 198 346 260 310 334 356 9 20 45 32
346 342 340 338 334 326 319 314 300 283 267 273 288 125 251 238 120 163 150 283 248 251 209 229 134 111 136 285 2 19 46 23 276 354 354 69 296 308 347 32 42 27 25 36 21
343 340 337 336 331 326 319 317 304 233 215 173 79 81 279 312 229 231 178 231 288 303 296 95 97 100 35 67 9 6 268 316 317 19 343 59 297 336 343 69 48 25 22 17 6
341 337 336 334 331 328 323 297 97 112 73 203 281 27 283 253 273 244 233 286 330 340 22 49 48 60 24 67 252 244 278 250 270 295 18 53 333 10 46 70 44 26 2 10 4
339 336 333 331 330 329 335 155 17 357 135 216 216 239 275 259 297 251 64 17 40 50 36 0 64 257 257 203 218 240 246 251 254 267 335 292 115 90 72 65 40 6 350 5 354
337 335 333 328 326 328 234 78 195 197 312 237 236 242 260 87 314 265 101 89 68 346 7 18 224 234 282 207 197 210 239 293 293 274 185 284 81 114 56 56 37 345 357 357 351
333 333 331 326 321 346 297 246 321 93 73 299 205 202 230 126 217 248 136 137 129 356 41 166 253 308 305 347 147 217 215 252 236 305 305 259 99 191 123 65 336 340 330 355 357
329 333 333 328 1 324 293 349 331 120 64 283 297 286 86 131 291 217 152 135 39 262 342 274 287 289 299 200 119 280 261 262 288 7 271 42 271 270 255 332 345 347 354 345 339
326 332 332 326 302 248 344 331 319 60 53 288 305 336 308 185 207 16 69 62 331 221 67 275 307 356 48 327 291 233 340 309 322 285 51 350 73 266 341 336 335 326 329 316 307
326 330 333 103 191 249 309 320 54 47 335 348 350 358 14 359 22 44 30 35 62 55 356 262 302 49 316 297 359 312 348 32 50 75 36 250 99 275 260 233 278 297 309 311 321
327 326 314 192 222 314 322 45 44 106 327 341 323 32 23 10 14 39 37 33 56 9 359 331 342 317 11 3 346 43 43 353 1 6 236 230 14 244 236 244 272 302 310 319 312
326 320 193 227 257 350 45 52 92 133 8 0 345 355 58 15 22 22 96 63 29 77 60 29 334 15 346 251 250 341 117 145 204 256 283 307 239 266 210 250 283 285 286 305 314
324 329 299 273 184 100 68 69 188 181 281 2 347 61 4 351 58 26 39 139 174 89 83 25 283 315 12 307 133 107 39 204 106 24 12 275 303 316 301 286 294 320 320 304 310
335 342 283 322 128 60 74 206 164 157 99 69 96 39 22 360 33 31 347 282 151 182 115 216 325 282 308 9 1 104 170 30 14 19 300 293 278 243 337 329 309 303 299 302 316
22 20 272 353 56 48 133 226 143 26 105 102 161 41 38 358 322 331 343 25 343 105 96 124 120 283 355 30 313 9 32 57 129 138 198 294 266 212 260 293 290 300 299 306 317
3 354 308 27 45 36 170 216 147 164 63 60 105 112 177 28 337 333 44 50 357 349 280 74 142 286 250 260 233 191 137 164 147 269 235 251 275 258 297 286 286 297 291 293 305
18 274 312 73 106 326 307 331 60 116 135 110 128 153 137 168 338 212 15 155 39 355 240 180 6 338 350 355 17 317 277 239 135 80 227 208 264 298 305 317 305 297 293 295 305
44 349 322 36 76 80 5 313 342 356 111 131 202 77 65 62 309 303 300 265 340 302 103 92 144 161 195 232 213 289 284 279 182 170 228 235 282 303 296 290 302 301 284 290 304
36 275 181 308 336 348 274 282 286 129 84 58 100 86 107 245 321 252 231 319 320 34 69 102 229 187 243 255 259 266 271 292 201 228 181 280 271 289 289 297 290 286 285 314 320
75 54 355 296 317 340 357 343 289 241 157 200 136 175 164 192 200 246 223 179 224 269 123 1 264 304 283 283 269 272 44 40 60 316 249 279 292 255 293 299 303 304 309 312 319
319 348 112 291 337 53 316 302 329 338 284 170 173 165 218 240 220 222 209 200 209 186 185 179 172 114 270 321 327 298 242 214 241 234 223 258 254 300 303 312 296 289 301 300 314